| time (UTC) | temp C | wind direction | speed KPH | gust KPH | rain 1hr cm | rain 24hr cm | rain mn cm | humidity % | barometer mb |
| 20260903143033 | 20 | 88 | 0.0 | 0.0 | 0.00 | 0.20 | 0.20 | 100 | 1010.7 |
| 20260903141535 | 20 | 88 | 0.0 | 0.0 | 0.00 | 0.20 | 0.20 | 100 | 1010.3 |
| 20260903140036 | 20 | 91 | 0.0 | 6.4 | 0.00 | 0.20 | 0.20 | 100 | 1009.8 |
| 20260903134520 | 20 | 309 | 0.0 | 0.0 | 0.00 | 0.20 | 0.20 | 100 | 1009.7 |
| 20260903133020 | 20 | 133 | 0.0 | 0.0 | 0.00 | 0.20 | 0.20 | 100 | 1009.8 |
| 20260903131515 | -17 | 312 | 0.0 | 0.0 | 0.00 | 0.20 | 0.20 | 1010.0 | |
| 20260903130007 | -17 | 315 | 0.0 | 0.0 | 0.00 | 0.20 | 0.20 | 1009.9 | |
| 20260903124503 | -17 | 316 | 0.0 | 0.0 | 0.00 | 0.20 | 0.20 | 1009.8 | |
| 20260903123058 | -17 | 339 | 0.0 | 0.0 | 0.00 | 0.20 | 0.20 | 1010.1 | |
| 20260903121557 | -17 | 12 | 0.0 | 17.7 | 0.00 | 0.20 | 0.20 | 1010.4 | |
| 20260903120105 | -17 | 35 | 0.0 | 0.0 | 0.00 | 0.20 | 0.20 | 1010.3 | |
| 20260903114554 | -17 | 49 | 0.0 | 0.0 | 0.00 | 0.20 | 0.20 | 1010.1 | |
| 20260903113057 | -17 | 49 | 0.0 | 0.0 | 0.00 | 0.20 | 0.20 | 1009.8 | |
| 20260903111553 | -17 | 22 | 1.6 | 17.7 | 0.00 | 0.20 | 0.20 | 1009.8 | |
| 20260903110101 | -17 | 38 | 9.7 | 22.5 | 0.00 | 0.20 | 0.20 | 1010.6 | |
| 20260903104554 | -17 | 328 | 9.7 | 12.9 | 0.00 | 0.23 | 0.20 | 1011.2 | |
| 20260903103047 | 21 | 348 | 0.0 | 9.7 | 0.00 | 0.23 | 0.20 | 100 | 1010.7 |
| 20260903101543 | 21 | 267 | 0.0 | 0.0 | 0.05 | 0.23 | 0.20 | 100 | 1010.1 |
| 20260903100038 | 22 | 267 | 0.0 | 0.0 | 0.05 | 0.23 | 0.20 | 19 | 1010.0 |
| 20260903094537 | 23 | 250 | 6.4 | 27.4 | 0.05 | 0.30 | 0.20 | 42 | 1010.2 |
| 20260903093029 | 22 | 243 | 11.3 | 27.4 | 0.05 | 0.30 | 0.20 | 2 | 1010.4 |
| 20260903091523 | 21 | 186 | 0.0 | 0.0 | 0.15 | 0.25 | 0.15 | 100 | 1009.7 |
| 20260903090019 | 21 | 186 | 0.0 | 0.0 | 0.15 | 0.25 | 0.15 | 100 | 1009.1 |
| 20260903084532 | 21 | 186 | 0.0 | 0.0 | 0.15 | 0.36 | 0.15 | 100 | 1009.0 |
| 20260903083010 | 22 | 184 | 0.0 | 9.7 | 0.15 | 0.36 | 0.15 | 41 | 1008.8 |
| 20260903081506 | 24 | 207 | 0.0 | 14.5 | 0.00 | 0.20 | 0.00 | 69 | 1009.6 |
| 20260903080001 | 23 | 221 | 0.0 | 12.9 | 0.00 | 0.20 | 0.00 | 69 | 1009.0 |
| 20260903074602 | 23 | 140 | 0.0 | 12.9 | 0.00 | 0.20 | 0.00 | 38 | 1009.6 |
| 20260903073052 | 23 | 219 | 1.6 | 12.9 | 0.00 | 0.20 | 0.00 | 39 | 1009.5 |
| 20260903071548 | 21 | 226 | 0.0 | 6.4 | 0.00 | 0.20 | 0.00 | 100 | 1009.2 |
| 20260903070043 | 21 | 96 | 0.0 | 0.0 | 0.00 | 0.20 | 0.00 | 100 | 1008.6 |
| 20260903064538 | 21 | 96 | 0.0 | 0.0 | 0.00 | 0.20 | 0.00 | 100 | 1008.5 |
| 20260903063034 | 21 | 96 | 0.0 | 0.0 | 0.00 | 0.20 | 0.00 | 100 | 1008.6 |
| 20260903061536 | 21 | 96 | 0.0 | 0.0 | 0.00 | 0.20 | 0.00 | 100 | 1008.6 |
| 20260903060037 | 21 | 96 | 0.0 | 0.0 | 0.00 | 0.20 | 0.00 | 100 | 1008.8 |
| 20260903054522 | 21 | 96 | 0.0 | 0.0 | 0.00 | 0.20 | 0.00 | 100 | 1008.6 |
| 20260903053028 | 21 | 96 | 0.0 | 0.0 | 0.00 | 0.20 | 0.00 | 100 | 1008.5 |
| 20260903051513 | 21 | 96 | 0.0 | 0.0 | 0.00 | 0.20 | 0.00 | 100 | 1008.6 |
| 20260903050010 | 22 | 96 | 0.0 | 0.0 | 0.00 | 0.20 | 0.00 | 100 | 1008.7 |
| 20260903044511 | 22 | 96 | 0.0 | 0.0 | 0.00 | 0.20 | 0.20 | 100 | 1008.6 |
| 20260903043015 | 22 | 96 | 0.0 | 0.0 | 0.00 | 0.20 | 0.20 | 100 | 1008.5 |
| 20260903041506 | 22 | 96 | 0.0 | 0.0 | 0.00 | 0.20 | 0.20 | 100 | 1008.6 |
| 20260903040008 | 23 | 96 | 0.0 | 0.0 | 0.00 | 0.20 | 0.20 | 100 | 1008.7 |
| 20260903034506 | 23 | 96 | 0.0 | 0.0 | 0.00 | 0.20 | 0.20 | 100 | 1008.7 |
| 20260903033005 | 23 | 96 | 0.0 | 0.0 | 0.00 | 0.20 | 0.20 | 100 | 1008.9 |
| 20260903031504 | 23 | 96 | 0.0 | 0.0 | 0.00 | 0.20 | 0.20 | 100 | 1008.8 |
| 20260903030003 | 23 | 96 | 0.0 | 0.0 | 0.00 | 0.20 | 0.20 | 100 | 1008.8 |
| 20260903024504 | 23 | 96 | 0.0 | 0.0 | 0.00 | 0.20 | 0.20 | 100 | 1008.8 |
| 20260903023002 | 23 | 96 | 0.0 | 0.0 | 0.00 | 0.20 | 0.20 | 100 | 1008.8 |
| 20260903021506 | 23 | 96 | 0.0 | 0.0 | 0.00 | 0.20 | 0.20 | 100 | 1008.6 |
| 20260903020105 | 24 | 96 | 0.0 | 0.0 | 0.00 | 0.20 | 0.20 | 100 | 1008.5 |
| 20260903014602 | 24 | 96 | 0.0 | 0.0 | 0.00 | 0.20 | 0.20 | 3 | 1008.5 |
| 20260903013050 | 24 | 96 | 0.0 | 0.0 | 0.00 | 0.20 | 0.20 | 4 | 1008.2 |
| 20260903011546 | 25 | 96 | 0.0 | 0.0 | 0.00 | 0.20 | 0.20 | 16 | 1008.1 |
| 20260903010040 | 25 | 96 | 0.0 | 0.0 | 0.00 | 0.20 | 0.20 | 30 | 1008.1 |
| 20260903004537 | 25 | 96 | 0.0 | 0.0 | 0.00 | 0.20 | 0.20 | 45 | 1008.2 |
| 20260903003032 | 26 | 96 | 0.0 | 0.0 | 0.00 | 0.20 | 0.20 | 49 | 1008.2 |
| 20260903001528 | 26 | 96 | 0.0 | 0.0 | 0.00 | 0.20 | 0.20 | 53 | 1008.2 |
| 20260903000025 | 27 | 96 | 0.0 | 0.0 | 0.00 | 0.20 | 0.20 | 59 | 1008.1 |
| 20260902234518 | 27 | 96 | 0.0 | 0.0 | 0.00 | 0.20 | 0.20 | 65 | 1008.0 |
| 20260902233014 | 27 | 101 | 0.0 | 0.0 | 0.00 | 0.20 | 0.20 | 67 | 1008.1 |
| 20260902231512 | 28 | 105 | 0.0 | 6.4 | 0.00 | 0.20 | 0.20 | 69 | 1008.1 |
| 20260902230005 | 28 | 300 | 0.0 | 0.0 | 0.00 | 0.20 | 0.20 | 68 | 1008.2 |
| 20260902224607 | 27 | 300 | 0.0 | 0.0 | 0.00 | 0.20 | 0.20 | 67 | 1008.2 |
| 20260902223056 | 28 | 300 | 0.0 | 0.0 | 0.00 | 0.20 | 0.20 | 69 | 1008.1 |
| 20260902221552 | 28 | 301 | 0.0 | 8.0 | 0.00 | 0.20 | 0.20 | 69 | 1008.1 |
| 20260902220048 | 28 | 22 | 0.0 | 4.8 | 0.00 | 0.20 | 0.20 | 68 | 1008.2 |
| 20260902214543 | 28 | 143 | 0.0 | 6.4 | 0.00 | 0.20 | 0.20 | 68 | 1008.3 |
| 20260902213037 | 29 | 254 | 0.0 | 6.4 | 0.00 | 0.20 | 0.20 | 67 | 1008.4 |
| 20260902211532 | 29 | 302 | 0.0 | 6.4 | 0.00 | 0.20 | 0.20 | 66 | 1008.5 |
| 20260902210047 | 29 | 263 | 0.0 | 1.6 | 0.00 | 0.20 | 0.20 | 66 | 1008.7 |
| 20260902204528 | 29 | 233 | 0.0 | 6.4 | 0.00 | 0.20 | 0.20 | 65 | 1008.8 |
| 20260902203019 | 30 | 305 | 0.0 | 4.8 | 0.00 | 0.20 | 0.20 | 66 | 1009.0 |
| 20260902201514 | 30 | 271 | 0.0 | 0.0 | 0.00 | 0.20 | 0.20 | 64 | 1009.1 |
| 20260902200011 | 29 | 311 | 0.0 | 4.8 | 0.00 | 0.20 | 0.20 | 65 | 1009.3 |
| 20260902194506 | 29 | 349 | 0.0 | 0.0 | 0.00 | 0.20 | 0.20 | 67 | 1009.5 |
| 20260902193001 | 28 | 186 | 0.0 | 4.8 | 0.00 | 0.20 | 0.20 | 68 | 1009.6 |
| 20260902191604 | 28 | 284 | 0.0 | 1.6 | 0.00 | 0.20 | 0.20 | 68 | 1009.6 |
| 20260902190059 | 27 | 288 | 0.0 | 0.0 | 0.00 | 0.20 | 0.20 | 68 | 1009.6 |
| 20260902184555 | 27 | 294 | 0.0 | 0.0 | 0.00 | 0.23 | 0.20 | 67 | 1009.8 |
| 20260902183051 | 28 | 294 | 0.0 | 3.2 | 0.00 | 0.23 | 0.20 | 66 | 1009.9 |
| 20260902181555 | 28 | 295 | 0.0 | 0.0 | 0.00 | 0.23 | 0.20 | 68 | 1010.3 |
| 20260902180100 | 27 | 293 | 0.0 | 4.8 | 0.00 | 0.23 | 0.20 | 69 | 1010.4 |
| 20260902174537 | 26 | 285 | 0.0 | 6.4 | 0.00 | 0.56 | 0.20 | 69 | 1010.0 |
| 20260902173034 | 25 | 319 | 0.0 | 0.0 | 0.00 | 0.56 | 0.20 | 66 | 1010.2 |
| 20260902171529 | 23 | 355 | 0.0 | 1.6 | 0.00 | 0.56 | 0.20 | 40 | 1010.6 |
| 20260902170029 | 21 | 355 | 4.8 | 9.7 | 0.00 | 0.56 | 0.20 | 100 | 1010.6 |
| 20260902164529 | 20 | 299 | 0.0 | 0.0 | 0.00 | 0.56 | 0.20 | 100 | 1011.1 |
| 20260902163027 | 20 | 216 | 0.0 | 0.0 | 0.00 | 0.56 | 0.20 | 100 | 1010.5 |
| 20260902161520 | 20 | 215 | 0.0 | 0.0 | 0.00 | 0.56 | 0.20 | 100 | 1011.8 |
| 20260902160014 | 20 | 215 | 0.0 | 0.0 | 0.00 | 0.56 | 0.20 | 100 | 1011.7 |
| 20260902154511 | 19 | 227 | 0.0 | 0.0 | 0.00 | 0.56 | 0.20 | 100 | 1011.6 |
| 20260902153007 | 19 | 227 | 0.0 | 0.0 | 0.00 | 0.56 | 0.20 | 100 | 1011.5 |
| 20260902151505 | 20 | 227 | 0.0 | 0.0 | 0.00 | 0.56 | 0.20 | 100 | 1011.4 |
| 20260902150057 | 19 | 227 | 0.0 | 0.0 | 0.00 | 0.56 | 0.20 | 100 | 1010.8 |
| 20260902144601 | 19 | 227 | 0.0 | 0.0 | 0.00 | 0.56 | 0.20 | 100 | 1010.3 |